Flag for U.S.A. Weather past 2 weeks in Elizabeth, New Jersey, U.S.A.

Now
74 °F

Partly sunny.


Feels Like: 77 °F
Forecast: 69 / 77 °F
Wind: 7 mph from Southeast

Location: Newark International Airport

Current Time: Aug 21, 2014 at 8:34:26 PM

Latest Report: Aug 21, 2014 at 7:51 PM


Visibility: 10 mi

Pressure: 30.02 "Hg

Humidity: 60%

Dew point: 59 °F

Location of ElizabethLocation

Historic Weather in Elizabeth — Graph

°F

Elizabeth temperature yesterday

Maximum temperature yesterday: 82 °F (at 12:51 PM)
Minimum temperature yesterday: 70 °F (at 12:51 AM)
Average temperature yesterday: 75 °F

Past Weeks' High & Low Weather Summary

 TemperatureHumidityPressure
High87 °F (Aug 10, 1:51 PM)97% (Aug 13, 8:51 AM)30.14 "Hg (Aug 13, 8:51 AM)
Low58 °F (Aug 16, 6:51 AM)26% (Aug 7, 3:51 PM)29.65 "Hg (Aug 13, 4:51 PM)
Average74 °F57%29.96 "Hg
* Reported Aug 6 6:51 PM — Aug 21 6:51 PM, Elizabeth, Weather by CustomWeather, © 2014

Note: Actual official high and low records may vary slightly from our data, if they occured in-between our weather recording intervals... More about our weather records

Advertising

Elizabeth weather history for previous 24 hours

 ConditionsComfort  
Time TempWeatherWind HumidityBarometerVisibility
6:51 PM
Aug 21
76 °FBroken clouds.9 mph54%30.01 "Hg10 mi
5:51 PM77 °FBroken clouds.10 mph56%30.00 "Hg10 mi
4:51 PM77 °FBroken clouds.10 mph56%30.01 "Hg10 mi
3:51 PM78 °FScattered clouds.13 mph58%30.02 "Hg10 mi
2:51 PM80 °FBroken clouds.14 mph58%30.03 "Hg10 mi
1:51 PM79 °FBroken clouds.12 mph65%30.03 "Hg10 mi
12:51 PM77 °FPartly sunny.7 mph66%30.04 "Hg10 mi
11:51 AM79 °FPartly sunny.8 mph58%30.05 "Hg10 mi
10:51 AM79 °FScattered clouds.5 mph50%30.05 "Hg10 mi
9:51 AM76 °FPartly sunny.7 mph60%30.06 "Hg10 mi
8:51 AM74 °FPartly sunny.5 mph71%30.06 "Hg10 mi
7:51 AM72 °FBroken clouds.No wind76%30.06 "Hg10 mi
6:51 AM70 °FPassing clouds.No wind79%30.04 "Hg10 mi
5:51 AM67 °FPassing clouds.No wind85%30.03 "Hg10 mi
4:51 AM66 °FMostly cloudy.5 mph87%30.02 "Hg10 mi
3:51 AM69 °FLight rain. Mostly cloudy.6 mph81%30.02 "Hg10 mi
2:51 AM72 °FMostly cloudy.3 mph71%30.03 "Hg10 mi
1:51 AM73 °FMostly cloudy.8 mph69%30.04 "Hg10 mi
12:51 AM72 °FPartly cloudy.6 mph71%30.04 "Hg10 mi
11:51 PM
Aug 20
72 °FPassing clouds.5 mph71%30.03 "Hg10 mi
10:51 PM72 °FPassing clouds.5 mph71%30.01 "Hg10 mi
9:51 PM73 °FPassing clouds.7 mph66%30.01 "Hg10 mi
8:51 PM74 °FPassing clouds.6 mph64%30.01 "Hg10 mi
Weather by CustomWeather, © 2014

See weather overviewHow to use our weather pages